Time,TemperatureF,DewpointF,PressureIn,WindDirection,WindDirectionDegrees,WindSpeedMPH,WindSpeedGustMPH,Humidity,HourlyPrecipIn,Conditions,Clouds,dailyrainin,SoftwareType,DateUTC
2013-12-14 00:00:00,16.0,-99.9,30.40,NE,50,6.0,10.0,-999,-99.99,,,-99.99,,2013-12-14 05:00:00,
2013-12-14 00:42:00,16.0,-99.9,30.40,NE,50,6.0,10.0,-999,-99.99,,,-99.99,,2013-12-14 05:42:00,
2013-12-14 00:53:00,16.0,-99.9,30.40,NE,50,6.0,10.0,-999,-99.99,,,-99.99,,2013-12-14 05:53:00,
2013-12-14 01:00:00,17.0,-99.9,30.40,NE,40,5.0,10.0,-999,-99.99,,,-99.99,,2013-12-14 06:00:00,
2013-12-14 01:42:00,17.0,-99.9,30.40,NE,40,5.0,10.0,-999,-99.99,,,-99.99,,2013-12-14 06:42:00,
2013-12-14 01:52:00,17.0,-99.9,30.40,NE,40,5.0,10.0,-999,-99.99,,,-99.99,,2013-12-14 06:52:00,
2013-12-14 02:00:00,16.0,-99.9,30.40,ESE,110,3.0,8.0,-999,-99.99,,,-99.99,,2013-12-14 07:00:00,
2013-12-14 02:42:00,16.0,-99.9,30.40,ESE,110,3.0,8.0,-999,-99.99,,,-99.99,,2013-12-14 07:42:00,
2013-12-14 02:52:00,16.0,-99.9,30.40,ESE,110,3.0,8.0,-999,-99.99,,,-99.99,,2013-12-14 07:52:00,
2013-12-14 03:00:00,16.0,-99.9,30.41,ESE,110,3.0,10.0,-999,-99.99,,,-99.99,,2013-12-14 08:00:00,
2013-12-14 03:22:00,16.0,-99.9,30.41,ESE,110,3.0,10.0,-999,-99.99,,,-99.99,,2013-12-14 08:22:00,
2013-12-14 03:33:00,16.0,-99.9,30.41,ESE,110,3.0,10.0,-999,-99.99,,,-99.99,,2013-12-14 08:33:00,
2013-12-14 03:42:00,16.0,-99.9,30.41,ESE,110,3.0,10.0,-999,-99.99,,,-99.99,,2013-12-14 08:42:00,
2013-12-14 03:52:00,16.0,-99.9,30.41,ESE,110,3.0,10.0,-999,-99.99,,,-99.99,,2013-12-14 08:52:00,
2013-12-14 04:00:00,16.0,-99.9,30.39,East,100,3.0,9.0,-999,-99.99,,,-99.99,,2013-12-14 09:00:00,
2013-12-14 04:44:00,16.0,-99.9,30.39,East,100,3.0,9.0,-999,-99.99,,,-99.99,,2013-12-14 09:44:00,
2013-12-14 04:54:00,16.0,-99.9,30.39,East,100,3.0,9.0,-999,-99.99,,,-99.99,,2013-12-14 09:54:00,
2013-12-14 05:00:00,15.0,-99.9,30.37,East,80,6.0,10.0,-999,-99.99,,,-99.99,,2013-12-14 10:00:00,
2013-12-14 05:23:00,15.0,-99.9,30.37,East,80,6.0,10.0,-999,-99.99,,,-99.99,,2013-12-14 10:23:00,
2013-12-14 05:33:00,15.0,-99.9,30.37,East,80,6.0,10.0,-999,-99.99,,,-99.99,,2013-12-14 10:33:00,
2013-12-14 05:43:00,15.0,-99.9,30.37,East,80,6.0,10.0,-999,-99.99,,,-99.99,,2013-12-14 10:43:00,
2013-12-14 05:53:00,15.0,-99.9,30.37,East,80,6.0,10.0,-999,-99.99,,,-99.99,,2013-12-14 10:53:00,
2013-12-14 06:00:00,17.0,-99.9,30.37,ESE,110,7.0,13.0,-999,-99.99,,,-99.99,,2013-12-14 11:00:00,
2013-12-14 06:42:00,17.0,-99.9,30.37,ESE,110,7.0,13.0,-999,-99.99,,,-99.99,,2013-12-14 11:42:00,
2013-12-14 06:53:00,17.0,-99.9,30.37,ESE,110,7.0,13.0,-999,-99.99,,,-99.99,,2013-12-14 11:53:00,
2013-12-14 07:00:00,16.0,-99.9,30.39,East,100,6.0,15.0,-999,-99.99,,,-99.99,,2013-12-14 12:00:00,
2013-12-14 07:42:00,16.0,-99.9,30.39,East,100,6.0,15.0,-999,-99.99,,,-99.99,,2013-12-14 12:42:00,
2013-12-14 07:53:00,16.0,-99.9,30.39,East,100,6.0,15.0,-999,-99.99,,,-99.99,,2013-12-14 12:53:00,
2013-12-14 08:00:00,15.0,-99.9,30.39,ESE,110,8.0,15.0,-999,-99.99,,,-99.99,,2013-12-14 13:00:00,
2013-12-14 08:42:00,15.0,-99.9,30.39,ESE,110,8.0,15.0,-999,-99.99,,,-99.99,,2013-12-14 13:42:00,
2013-12-14 08:52:00,15.0,-99.9,30.39,ESE,110,8.0,15.0,-999,-99.99,,,-99.99,,2013-12-14 13:52:00,
2013-12-14 09:00:00,14.0,-99.9,30.37,East,90,7.0,18.0,-999,-99.99,,,-99.99,,2013-12-14 14:00:00,
2013-12-14 09:42:00,14.0,-99.9,30.37,East,90,7.0,18.0,-999,-99.99,,,-99.99,,2013-12-14 14:42:00,
2013-12-14 09:52:00,14.0,-99.9,30.37,East,90,7.0,18.0,-999,-99.99,,,-99.99,,2013-12-14 14:52:00,
2013-12-14 10:00:00,15.0,-99.9,30.36,East,80,6.0,14.0,-999,-99.99,,,-99.99,,2013-12-14 15:00:00,
2013-12-14 10:44:00,15.0,-99.9,30.36,East,80,6.0,14.0,-999,-99.99,,,-99.99,,2013-12-14 15:44:00,
2013-12-14 10:54:00,15.0,-99.9,30.36,East,80,6.0,14.0,-999,-99.99,,,-99.99,,2013-12-14 15:54:00,
2013-12-14 11:00:00,15.0,-99.9,30.33,East,100,5.0,18.0,-999,-99.99,,,-99.99,,2013-12-14 16:00:00,
2013-12-14 11:43:00,15.0,-99.9,30.33,East,100,5.0,18.0,-999,-99.99,,,-99.99,,2013-12-14 16:43:00,
2013-12-14 11:53:00,15.0,-99.9,30.33,East,100,5.0,18.0,-999,-99.99,,,-99.99,,2013-12-14 16:53:00,
2013-12-14 12:00:00,16.0,-99.9,30.27,East,90,8.0,20.0,-999,-99.99,,,-99.99,,2013-12-14 17:00:00,
2013-12-14 12:43:00,16.0,-99.9,30.27,East,90,8.0,20.0,-999,-99.99,,,-99.99,,2013-12-14 17:43:00,
2013-12-14 12:53:00,16.0,-99.9,30.27,East,90,8.0,20.0,-999,-99.99,,,-99.99,,2013-12-14 17:53:00,
2013-12-14 13:00:00,16.0,-99.9,30.21,ENE,70,11.0,20.0,-999,-99.99,,,-99.99,,2013-12-14 18:00:00,
2013-12-14 13:42:00,16.0,-99.9,30.21,ENE,70,11.0,20.0,-999,-99.99,,,-99.99,,2013-12-14 18:42:00,
2013-12-14 13:52:00,16.0,-99.9,30.21,ENE,70,11.0,20.0,-999,-99.99,,,-99.99,,2013-12-14 18:52:00,
2013-12-14 14:00:00,16.0,-99.9,30.15,ENE,70,8.0,16.0,-999,-99.99,,,-99.99,,2013-12-14 19:00:00,
2013-12-14 14:42:00,16.0,-99.9,30.15,ENE,70,8.0,16.0,-999,-99.99,,,-99.99,,2013-12-14 19:42:00,
2013-12-14 14:52:00,16.0,-99.9,30.15,ENE,70,8.0,16.0,-999,-99.99,,,-99.99,,2013-12-14 19:52:00,
2013-12-14 15:00:00,17.0,-99.9,30.10,ENE,60,8.0,20.0,-999,-99.99,,,-99.99,,2013-12-14 20:00:00,
2013-12-14 15:23:00,17.0,-99.9,30.10,ENE,60,8.0,20.0,-999,-99.99,,,-99.99,,2013-12-14 20:23:00,
2013-12-14 15:32:00,17.0,-99.9,30.10,ENE,60,8.0,20.0,-999,-99.99,,,-99.99,,2013-12-14 20:32:00,
2013-12-14 15:42:00,17.0,-99.9,30.10,ENE,60,8.0,20.0,-999,-99.99,,,-99.99,,2013-12-14 20:42:00,
2013-12-14 15:54:00,17.0,-99.9,30.10,ENE,60,8.0,20.0,-999,-99.99,,,-99.99,,2013-12-14 20:54:00,
2013-12-14 16:00:00,18.0,-99.9,30.07,East,80,8.0,18.0,-999,-99.99,,,-99.99,,2013-12-14 21:00:00,
2013-12-14 16:44:00,18.0,-99.9,30.07,East,80,8.0,18.0,-999,-99.99,,,-99.99,,2013-12-14 21:44:00,
2013-12-14 16:54:00,18.0,-99.9,30.07,East,80,8.0,18.0,-999,-99.99,,,-99.99,,2013-12-14 21:54:00,
2013-12-14 17:00:00,18.0,-99.9,30.02,ENE,70,5.0,17.0,-999,-99.99,,,-99.99,,2013-12-14 22:00:00,
2013-12-14 17:43:00,18.0,-99.9,30.02,ENE,70,5.0,17.0,-999,-99.99,,,-99.99,,2013-12-14 22:43:00,
2013-12-14 17:52:00,18.0,-99.9,30.02,ENE,70,5.0,17.0,-999,-99.99,,,-99.99,,2013-12-14 22:52:00,
2013-12-14 18:00:00,19.0,-99.9,30.00,ENE,70,9.0,16.0,-999,-99.99,,,-99.99,,2013-12-14 23:00:00,
2013-12-14 18:43:00,19.0,-99.9,30.00,ENE,70,9.0,16.0,-999,-99.99,,,-99.99,,2013-12-14 23:43:00,
2013-12-14 18:53:00,19.0,-99.9,30.00,ENE,70,9.0,16.0,-999,-99.99,,,-99.99,,2013-12-14 23:53:00,
2013-12-14 19:00:00,20.0,-99.9,29.95,East,90,8.0,16.0,-999,-99.99,,,-99.99,,2013-12-15 00:00:00,
2013-12-14 19:23:00,20.0,-99.9,29.95,East,90,8.0,16.0,-999,-99.99,,,-99.99,,2013-12-15 00:23:00,
2013-12-14 19:32:00,20.0,-99.9,29.95,East,90,8.0,16.0,-999,-99.99,,,-99.99,,2013-12-15 00:32:00,
2013-12-14 19:42:00,20.0,-99.9,29.95,East,90,8.0,16.0,-999,-99.99,,,-99.99,,2013-12-15 00:42:00,
2013-12-14 19:52:00,20.0,-99.9,29.95,East,90,8.0,16.0,-999,-99.99,,,-99.99,,2013-12-15 00:52:00,
2013-12-14 20:00:00,20.0,-99.9,29.91,ENE,70,8.0,16.0,-999,-99.99,,,-99.99,,2013-12-15 01:00:00,
2013-12-14 20:42:00,20.0,-99.9,29.91,ENE,70,8.0,16.0,-999,-99.99,,,-99.99,,2013-12-15 01:42:00,
2013-12-14 20:52:00,20.0,-99.9,29.91,ENE,70,8.0,16.0,-999,-99.99,,,-99.99,,2013-12-15 01:52:00,
2013-12-14 21:00:00,21.0,-99.9,29.86,East,80,6.0,18.0,-999,-99.99,,,-99.99,,2013-12-15 02:00:00,
2013-12-14 21:42:00,21.0,-99.9,29.86,East,80,6.0,18.0,-999,-99.99,,,-99.99,,2013-12-15 02:42:00,
2013-12-14 21:52:00,21.0,-99.9,29.86,East,80,6.0,18.0,-999,-99.99,,,-99.99,,2013-12-15 02:52:00,
2013-12-14 22:00:00,-999.0,-99.9,-100.00,East,90,6.0,16.0,-999,-99.99,,,-99.99,,2013-12-15 03:00:00,
2013-12-14 22:43:00,21.0,-99.9,29.81,East,90,6.0,16.0,-999,-99.99,,,-99.99,,2013-12-15 03:43:00,
2013-12-14 22:54:00,21.0,-99.9,29.81,East,90,6.0,16.0,-999,-99.99,,,-99.99,,2013-12-15 03:54:00,
2013-12-14 23:00:00,21.0,-99.9,29.77,East,80,5.0,13.0,-999,-99.99,,,-99.99,,2013-12-15 04:00:00,
2013-12-14 23:43:00,21.0,-99.9,29.77,East,80,5.0,13.0,-999,-99.99,,,-99.99,,2013-12-15 04:43:00,
2013-12-14 23:53:00,21.0,-99.9,29.77,East,80,5.0,13.0,-999,-99.99,,,-99.99,,2013-12-15 04:53:00,